This demonstration page uses our WeatherBlox Daily Observations layout. Learn more.

Left ArrowRight Arrow

31.84235, -102.49876

Hourly Observations for June 20, 2022

Temp ( °F °C ) Dew Point ( °F °C ) Humidity (%) Winds ( mph kmh ) Pressure ( in mb ) Visibility ( mi km ) Precip ( " mm )
12:53 am 00:53 Clear 83 28.3 55 12.8 38 38 SSE 10 17 29.90 1013 10 16 0.00 0.00
1:53 am 01:53 Clear 81 27.2 55 12.8 41 41 SSE 12 19 29.90 1013 10 16 0.00 0.00
2:53 am 02:53 Clear 80 26.7 55 12.8 42 42 SSE 12 19 29.90 1013 10 16 0.00 0.00
3:53 am 03:53 Clear 78 25.6 55 12.8 45 45 SSE 9 15 29.91 1013 10 16 0.00 0.00
4:53 am 04:53 Clear 78 25.6 56 13.3 47 47 SSE 12 19 29.91 1013 10 16 0.00 0.00
5:53 am 05:53 Clear 75 23.9 56 13.3 52 52 SSE 7 11 29.93 1013 10 16 0.00 0.00
6:53 am 06:53 Sunny 75 23.9 58 14.4 55 55 SSE 9 15 29.95 1014 10 16 0.00 0.00
7:53 am 07:53 Sunny 77 25 61 16.1 58 58 SE 15 24 29.96 1015 10 16 0.00 0.00
8:53 am 08:53 Sunny 79 26.1 63 17.2 58 58 SSE 16 26 29.97 1015 10 16 0.00 0.00
9:53 am 09:53 Sunny 83 28.3 63 17.2 51 51 SSE 20 31 29.98 1015 10 16 0.00 0.00
10:53 am 10:53 Sunny 85 29.4 61 16.1 45 45 S 21 33 29.98 1015 10 16 0.00 0.00
11:53 am 11:53 Sunny 88 31.1 60 15.6 39 39 S 20 31 29.98 1015 10 16 0.00 0.00
12:53 pm 12:53 Mostly Sunny 90 32.2 58 14.4 34 34 SSW 16 26 29.96 1015 10 16 0.00 0.00
1:53 pm 13:53 Partly Cloudy 91 32.8 58 14.4 33 33 SSE 17 28 29.95 1014 10 16 0.00 0.00
2:53 pm 14:53 Mostly Sunny 93 33.9 56 13.3 29 29 S 17 28 29.92 1013 10 16 0.00 0.00
3:53 pm 15:53 Sunny 93 33.9 56 13.3 29 29 S 18 30 29.90 1012 10 16 0.00 0.00
4:53 pm 16:53 Partly Cloudy 95 35 54 12.2 25 25 S 20 31 29.88 1012 10 16 0.00 0.00
5:53 pm 17:53 Sunny 95 35 53 11.7 24 24 SE 22 35 29.87 1011 10 16 0.00 0.00
6:53 pm 18:53 Sunny 94 34.4 50 10 22 22 SSE 17 28 29.87 1011 10 16 0.00 0.00
7:53 pm 19:53 Sunny 91 32.8 51 10.6 26 26 SSE 15 24 29.88 1012 10 16 0.00 0.00
8:53 pm 20:53 Sunny 90 32.2 52 11.1 27 27 SSE 15 24 29.89 1012 10 16 0.00 0.00
9:53 pm 21:53 Clear 88 31.1 51 10.6 28 28 SSE 9 15 29.91 1013 10 16 0.00 0.00
10:53 pm 22:53 Clear 86 30 50 10 29 29 S 13 20 29.94 1014 10 16 0.00 0.00
11:53 pm 23:53 Clear 85 29.4 49 9.4 29 29 S 9 15 29.95 1014 10 16 0.00 0.00

Powered by AerisWeather